Regional Weather Roundup
Issued by NWS Sioux Falls, SD

Home | Current Version | Previous Version | Graphics & Text | Print | Product List | Glossary Off
Versions: 1 2 3 4 5 6 7 8 9 10 11 12 13 14 15 16 17 18 19 20 21 22 23 24 25 26 27 28 29 30 31 32 33 34 35 36 37 38 39 40 41 42 43 44 45 46 47 48 49 50

000
ASUS43 KFSD 081102
RWRFSD

WEATHER ROUNDUP FOR SE SOUTH DAKOTA/SW MINNESOTA/NW IOWA
NATIONAL WEATHER SERVICE SIOUX FALLS SD
500 AM CST THU DEC 08 2016

NOTE: "FAIR" INDICATES FEW OR NO CLOUDS BELOW 12,000 FEET WITH NO
SIGNIFICANT WEATHER AND OR OBSTRUCTIONS TO VISIBILITY.


SDZ038>040-050-052>070-081200-
SOUTHEAST SOUTH DAKOTA

CITY           SKY/WX    TMP DP  RH WIND       PRES   REMARKS
CHAMBERLAIN    CLEAR      9   4  78 NW20G25   30.55S WCI -10
HURON          PTCLDY     7   2  80 NW22G29   30.51R WCI -14
MADISON        CLOUDY     5   3  92 NW23G29   30.40R WCI -17
MITCHELL       PTCLDY     8   2  76 NW20      30.53R WCI -11
SIOUX FALLS    CLEAR      8   3  80 NW21G31   30.42R WCI -12
WINNER         CLOUDY     8  -1  66 NW18G29   30.56R WCI -11
YANKTON        CLEAR    N/A N/A N/A NW24G30   30.50R
$$

MNZ071-072-080-081-089-090-097-098-081200-
SOUTHWEST MINNESOTA

CITY           SKY/WX    TMP DP  RH WIND       PRES   REMARKS
FAIRMONT       FLURRIES  13   8  81 NW21G32   30.31R WCI  -5
JACKSON        FLURRIES  10   5  79 W18G26    30.32R WCI  -8
LUVERNE        PTCLDY     9   3  78 NW22G29   30.40R WCI -11
MARSHALL       FLURRIES  13   7  77 NW23G33   30.34R WCI  -6
MONTEVIDEO     LGT SNOW  16  10  79 N16G22    30.35R WCI   0
PIPESTONE      CLEAR      9   5  85 NW17G26   30.35S WCI -10
REDWOOD FALLS  FLURRIES  16   9  74 NW16G28   30.31R WCI   1
TRACY          CLOUDY    14   9  81 NW21G26   30.34R WCI  -4
WINDOM         LGT SNOW  12   9  85 W26       30.31R WCI  -8
WORTHINGTON    LGT SNOW   9   5  84 W21G26    30.34R FOG     WCI -11
$$

IAZ001>003-012>014-020>022-031-032-NEZ013-014-SDZ071-081200-
NORTHWEST IOWA

CITY           SKY/WX    TMP DP  RH WIND       PRES   REMARKS
CHEROKEE       PTCLDY     9   3  79 NW13G23   30.43R WCI  -7
DENISON        CLEAR     10   3  72 NW20G32   30.42S WCI  -8
ESTHERVILLE    MOCLDY    10   6  84 NW22G33   30.33R WCI -10
LE MARS        CLOUDY     9   3  78 NW16G23   30.47S WCI  -9
ORANGE CITY    CLEAR      9   3  78 NW23G30   30.40F WCI -12
SHELDON        CLOUDY     9   5  85 NW18G29   30.39R WCI -10
SIOUX CITY     CLEAR     12   2  64 NW16G28   30.48R WCI  -5
SPENCER        CLOUDY    10   5  80 W29G37    30.36R WCI -12
STORM LAKE     MOCLDY     9   3  78 NW25G31   30.37R WCI -13
$$

ABBREVIATIONS USED IN REMARKS
   TC - TEMPERATURE IN CELSIUS
  WCI - WIND CHILL INDEX
   HX - HEAT INDEX
  VSB - VISIBILITY





USA.gov is the U.S. government's official web portal to all federal, state and local government web resources and services.